RH
31 34 36 39 42 41 39 39 44 53 59 57 51 48 42 40 44 44 43 41 37 37 38 37 37 35 34 28 20 15 9 6 5 5 5 5 5 4 4 4 3 3 3 3 3 3 3 3 3 3 3 3 3 3 4 4 4 4 4 4 5 5 5 5 5 5 5 5 5 5 5 5 5 6 6 7 7 8 9 10 11 12 13 14 15 16
35 37 37 37 38 41 41 40 47 56 61 59 53 51 47 42 44 45 45 43 39 38 38 38 37 36 35 29 21 15 9 6 5 5 5 5 5 5 4 4 3 3 3 3 3 3 3 3 3 3 3 3 3 3 3 3 3 3 4 3 4 4 4 4 4 5 5 5 5 4 5 5 4 5 5 5 5 6 6 7 9 10 11 12 12 13
39 40 38 36 36 39 40 41 49 59 65 62 54 52 49 42 41 42 43 42 40 39 39 39 36 34 34 27 20 14 9 6 5 5 5 5 5 4 4 4 4 4 3 3 3 3 3 3 3 3 3 3 3 4 3 3 3 3 3 3 3 3 3 4 4 4 4 4 4 4 4 5 4 4 4 4 4 5 5 5 6 7 8 9 10 11
38 37 34 32 31 35 40 41 47 60 69 66 56 53 50 44 41 40 40 40 40 40 39 39 36 32 29 24 18 13 9 6 4 5 5 4 4 4 4 4 4 4 4 4 4 3 3 3 3 3 3 4 3 4 3 3 4 3 4 3 3 3 3 3 3 3 3 4 4 4 4 4 5 5 4 5 4 4 5 4 5 5 6 6 7 8
35 33 30 28 28 33 39 40 44 55 64 63 57 54 52 46 42 40 39 39 40 39 38 38 36 31 27 23 18 13 9 6 4 4 4 4 4 3 3 3 4 4 4 4 4 4 4 3 3 3 3 3 3 4 3 4 4 3 4 3 3 3 3 4 3 3 3 3 3 3 4 4 4 4 4 5 5 5 5 5 5 5 5 5 6 6
34 33 30 27 27 33 40 40 40 46 54 56 54 53 54 50 44 42 41 39 39 39 37 36 34 31 27 24 20 14 9 6 4 4 4 4 3 3 3 3 4 4 4 4 4 4 4 3 4 3 3 3 3 3 3 3 3 3 4 3 4 3 3 4 3 4 3 3 3 3 3 3 3 4 4 4 4 4 5 5 5 5 5 5 5 6
33 33 32 29 26 31 38 39 36 39 49 55 52 50 55 55 46 43 43 41 39 40 39 36 34 32 28 26 22 16 11 8 5 4 4 4 3 3 3 3 3 4 4 4 4 4 4 4 4 4 4 3 3 3 3 4 3 3 4 3 4 3 3 4 3 4 3 3 3 3 3 3 3 3 3 3 3 4 4 4 5 5 5 5 5 5
35 34 34 32 28 29 36 37 33 34 44 52 52 49 53 60 53 43 43 42 39 40 39 35 32 32 30 26 23 19 14 10 6 4 4 4 4 3 3 3 3 3 3 4 4 4 4 4 4 4 4 3 3 4 3 3 3 3 3 3 3 3 3 4 3 4 3 3 3 3 3 3 3 3 3 3 3 3 3 3 4 4 4 4 4 5
35 34 33 33 31 30 33 36 34 34 38 45 52 52 54 65 64 49 42 42 40 39 38 36 33 33 31 27 25 22 18 13 8 5 4 4 4 3 3 3 3 3 3 3 4 4 3 4 4 3 4 4 4 3 3 3 3 3 3 3 3 3 3 3 3 3 3 3 3 3 3 3 3 3 3 3 3 3 3 3 3 3 3 3 3 4
32 32 30 31 33 32 33 38 38 36 37 41 48 53 57 66 69 57 44 40 40 37 36 38 37 35 33 29 26 24 21 16 11 7 5 4 4 4 3 3 3 3 3 4 3 4 3 3 3 3 3 4 3 4 3 3 3 3 3 3 3 3 3 3 3 3 3 3 3 3 3 3 3 3 3 3 3 3 3 3 3 3 3 3 3 4
29 30 30 29 31 32 34 39 40 36 36 38 41 46 50 57 62 59 48 39 38 38 38 41 41 38 35 32 27 25 23 19 15 9 5 4 4 4 4 3 3 3 3 4 4 4 3 3 3 3 3 3 3 3 3 3 3 3 3 3 3 3 3 3 3 3 3 3 3 3 3 3 3 3 3 3 3 3 3 3 3 3 3 3 3 3
29 28 29 28 28 30 33 39 43 38 34 35 37 38 40 45 50 50 45 39 37 39 41 44 45 42 38 34 29 25 24 22 17 11 6 4 4 4 4 3 3 3 3 4 4 4 4 3 3 3 3 3 3 3 3 3 3 3 3 3 3 3 3 3 3 3 3 3 3 3 3 3 2 2 2 2 3 3 3 3 3 3 3 3 3 3
36 32 30 29 27 29 32 37 44 43 36 34 35 34 33 37 42 43 40 38 38 39 43 47 49 46 40 35 31 26 24 23 19 14 8 5 4 4 4 4 3 3 3 3 4 4 3 3 3 3 3 3 3 3 3 3 3 3 3 3 3 3 3 3 3 3 3 3 3 3 3 3 3 2 2 2 3 2 3 3 3 3 3 2 2 2
38 36 34 33 31 32 32 33 39 42 38 34 33 34 32 34 41 45 41 38 39 40 44 51 52 49 44 38 34 29 25 23 21 17 11 6 4 4 4 4 3 3 3 3 4 4 4 3 3 3 3 3 3 3 3 3 3 3 2 3 3 3 3 3 3 3 3 3 3 3 3 3 3 3 3 2 2 3 2 2 3 3 3 3 3 2
36 37 36 37 34 33 33 32 34 38 38 35 34 36 35 34 42 51 49 44 42 42 43 51 55 53 48 42 37 32 27 23 22 21 16 9 5 4 4 4 4 3 3 4 4 4 4 4 3 3 3 3 3 3 3 3 3 3 3 3 3 2 2 3 3 3 3 3 3 3 3 3 3 3 3 3 3 3 3 2 2 2 2 2 2 2
39 39 39 39 37 35 34 34 33 35 36 34 34 36 36 35 39 48 55 51 46 44 44 49 58 58 51 46 42 36 30 25 23 23 21 14 7 5 5 4 4 4 3 4 4 4 4 4 3 3 3 3 3 3 3 3 3 3 3 2 3 3 2 2 2 3 3 3 3 3 3 3 3 3 3 3 3 3 3 3 2 2 2 2 2 2
43 43 42 41 40 38 36 36 34 33 34 33 32 33 35 39 40 42 49 51 46 45 45 46 54 59 54 50 46 39 34 30 25 22 22 18 10 5 5 4 4 4 3 3 4 4 4 4 3 3 3 3 3 3 3 3 3 3 2 2 2 2 2 2 2 2 2 3 3 3 3 3 3 3 3 3 3 3 3 3 3 3 2 2 2 2
45 46 45 43 42 40 38 37 34 32 32 31 30 30 33 40 42 38 42 47 44 42 45 46 51 57 57 53 49 42 38 35 29 23 21 20 15 7 5 5 4 4 4 3 4 4 4 4 4 3 3 3 3 3 3 3 3 3 3 2 2 2 2 2 2 2 2 2 2 2 3 3 3 3 3 3 3 3 3 3 3 3 3 2 2 2
48 48 47 45 44 43 39 36 33 31 31 30 29 30 32 39 44 42 40 45 46 41 43 48 52 55 57 56 52 48 44 40 34 27 22 20 18 11 6 5 5 4 4 4 3 4 4 4 4 4 3 3 3 3 3 3 3 3 3 3 3 3 2 2 2 2 2 2 2 2 2 3 3 3 3 3 3 3 3 3 3 3 3 3 2 3
51 50 50 49 47 45 41 36 33 31 29 29 28 29 35 45 53 54 46 45 49 44 41 48 54 56 58 59 57 55 52 48 41 33 25 20 19 15 9 5 5 5 4 4 4 4 4 4 4 4 3 3 3 3 3 4 4 3 4 3 3 3 3 3 2 2 2 2 2 2 2 2 3 3 3 3 3 3 3 3 3 3 3 3 3 3
51 52 54 53 50 47 42 37 34 32 29 29 28 28 35 43 50 58 53 45 48 48 43 47 55 57 59 61 61 60 59 55 50 41 31 23 19 18 13 7 5 5 5 4 4 4 4 4 4 4 4 3 3 3 3 3 3 4 4 4 4 3 3 3 3 2 2 2 2 2 2 2 3 2 3 3 3 3 3 3 3 3 3 3 3 3
49 52 54 54 52 49 44 39 35 33 31 30 29 28 33 37 41 53 58 48 45 48 46 46 52 58 60 62 62 63 62 59 56 49 40 30 22 19 17 11 6 5 5 5 4 4 3 4 4 4 4 4 3 3 3 3 3 3 4 4 4 4 4 3 3 3 3 2 2 2 2 2 2 2 2 3 3 3 3 3 3 3 3 3 3 3
48 50 52 53 53 50 46 41 37 34 33 31 30 29 31 35 38 46 56 52 44 45 46 45 49 55 60 62 63 64 64 61 59 55 48 40 30 22 18 15 9 5 5 5 4 4 4 4 4 4 4 4 3 3 3 3 3 3 3 4 3 4 4 3 3 3 3 3 3 3 2 2 2 2 2 2 2 3 3 3 3 3 3 3 3 3
52 51 51 53 54 52 48 45 41 37 35 33 32 31 30 32 34 38 50 57 49 42 42 44 47 52 57 60 62 65 65 62 60 57 53 47 39 29 21 17 13 8 5 5 5 5 4 4 4 4 4 4 4 3 3 3 3 3 3 3 4 4 3 3 3 3 3 3 3 3 3 3 2 2 2 2 2 2 2 3 3 3 3 3 3 3
59 58 56 54 52 50 48 46 43 39 37 35 33 33 31 30 30 32 42 53 53 45 40 41 45 50 55 59 61 64 64 62 61 59 54 49 44 36 27 20 17 12 7 5 5 5 5 4 4 4 4 5 4 4 3 3 4 4 4 4 4 4 4 4 3 3 3 3 3 3 3 3 3 3 2 2 2 2 2 2 2 2 3 3 3 3
66 66 64 60 55 50 48 47 45 42 40 37 36 36 34 31 30 31 36 44 51 51 44 39 42 48 54 57 58 60 60 60 60 59 56 51 46 41 34 25 20 17 11 7 5 5 5 5 4 4 4 4 5 4 4 3 4 4 4 4 4 4 4 4 4 4 4 3 3 3 3 3 3 3 3 3 2 2 2 2 2 2 2 2 2 3
70 69 67 65 61 56 52 50 49 47 44 40 39 38 36 34 30 31 33 36 44 52 50 42 40 46 52 54 54 55 56 56 58 58 56 54 50 45 41 33 26 20 15 10 6 5 5 5 5 4 4 4 4 5 4 4 3 4 4 4 4 4 4 4 4 4 4 4 3 3 3 3 3 3 3 3 3 3 2 2 2 2 2 2 2 2
71 70 66 65 64 60 56 53 52 52 49 45 42 39 37 35 31 30 32 34 39 48 52 46 40 43 50 53 52 53 54 54 55 56 57 56 53 49 45 41 34 26 18 13 9 6 5 6 5 5 4 4 4 4 5 4 4 4 4 4 4 4 4 4 4 4 4 4 4 3 3 3 3 3 3 3 3 3 3 3 3 2 2 2 2 2
70 70 66 64 64 62 59 55 55 55 53 49 45 41 38 36 32 30 31 36 41 49 55 53 43 40 47 54 55 57 58 57 56 56 57 57 55 52 48 45 41 32 22 17 13 8 6 5 6 6 5 4 4 4 4 4 4 4 4 4 4 4 4 4 4 4 3 3 3 4 4 3 3 3 3 3 3 3 3 3 3 3 3 2 2 2
70 71 67 64 63 63 61 57 55 56 56 53 47 43 40 36 33 30 30 34 41 48 56 59 51 42 45 54 61 64 66 64 60 58 56 56 56 55 51 48 44 37 29 22 16 11 8 6 5 6 5 5 4 4 4 4 4 4 3 3 4 4 4 4 4 4 4 3 3 3 3 3 3 3 3 3 3 3 3 3 3 3 3 3 3 2
72 71 69 65 62 62 63 60 56 57 58 55 48 44 42 39 34 30 28 30 34 41 51 59 57 47 43 49 60 68 69 69 67 62 58 55 55 56 54 50 46 40 35 28 22 16 11 7 6 5 6 6 5 4 5 4 5 5 4 3 4 4 4 4 4 4 4 4 3 3 3 3 3 3 3 3 3 3 3 3 3 3 3 3 3 3
68 69 68 66 62 60 62 62 58 58 59 55 49 47 46 42 37 32 29 28 29 33 42 53 56 49 42 43 53 62 67 69 68 66 63 60 57 56 56 53 49 44 39 35 29 22 15 10 7 6 5 6 6 5 5 4 5 5 5 4 4 4 4 4 4 4 4 4 4 3 3 3 3 3 3 3 3 3 3 3 3 3 3 3 3 3
61 62 63 63 61 59 61 63 61 59 58 54 52 51 48 44 40 35 30 28 27 28 35 46 52 47 40 39 45 53 59 63 64 64 65 65 61 58 57 55 52 48 43 39 34 28 21 14 9 7 6 5 6 6 5 5 5 5 5 5 4 4 4 4 4 4 4 4 4 4 4 4 3 3 3 3 3 3 3 3 3 3 3 3 3 3
57 57 57 59 60 59 60 62 62 59 57 56 55 54 51 46 42 36 31 28 26 26 30 40 48 47 40 38 41 46 52 56 58 60 63 65 64 60 57 55 54 51 46 42 38 33 28 20 13 9 7 6 6 6 6 5 5 5 5 5 5 5 4 4 4 4 4 4 4 4 4 4 4 4 3 3 3 3 4 4 3 3 3 3 3 3
55 55 55 56 58 58 59 60 60 57 57 58 57 56 54 49 44 38 33 29 27 25 27 35 45 47 42 38 40 44 49 52 56 60 63 64 64 62 58 55 55 54 49 45 40 36 32 27 19 12 8 7 6 6 6 6 5 5 5 5 6 6 5 5 5 4 4 4 4 4 4 4 4 4 4 4 4 3 3 3 4 4 4 3 3 3
55 55 55 56 57 57 57 58 58 58 60 59 58 57 55 50 45 39 34 30 27 26 26 32 43 47 42 38 39 43 48 51 55 60 63 64 65 64 60 56 56 56 53 48 43 38 35 32 27 18 11 8 7 6 6 6 6 5 5 5 5 6 6 6 5 5 5 5 4 4 4 4 4 4 4 4 4 4 4 4 4 4 4 4 4 4
54 55 55 55 57 57 56 57 58 59 59 58 58 59 56 51 46 40 36 32 29 26 25 30 42 48 43 36 38 44 48 52 57 62 65 66 67 66 62 57 56 58 56 52 46 42 38 35 32 26 17 10 7 7 6 6 6 6 5 5 5 5 6 6 6 6 6 5 5 5 4 4 4 4 4 4 4 4 4 4 4 4 4 4 4 4
53 53 54 55 57 58 56 55 55 55 56 56 58 59 56 51 47 41 37 34 30 26 24 28 40 49 44 37 39 44 49 54 60 64 67 68 68 67 64 59 56 57 58 56 51 46 42 39 36 32 24 15 9 7 6 6 6 7 6 6 5 5 5 6 6 6 6 6 6 6 5 5 5 4 4 4 4 4 4 4 4 4 4 4 4 4
52 51 52 53 55 57 58 57 54 53 54 55 55 57 57 52 47 43 40 37 33 28 24 25 37 49 46 39 39 45 50 56 62 66 70 71 71 70 67 61 57 56 57 58 55 51 47 44 40 37 31 23 14 8 7 7 6 6 7 6 6 5 5 5 6 6 6 6 6 6 6 6 6 5 5 5 4 5 5 5 5 4 4 4 4 4
50 47 48 49 50 52 56 58 57 54 54 53 53 54 56 53 48 45 42 39 36 31 25 24 36 50 48 40 41 46 51 56 61 66 69 72 74 74 68 62 59 57 56 58 58 55 51 48 46 42 38 32 22 12 7 7 6 6 7 7 7 6 5 5 5 6 6 6 6 7 7 7 7 6 6 6 5 5 5 5 5 5 5 5 4 4
49 46 45 45 45 47 50 55 58 56 53 52 52 52 53 52 50 47 45 43 39 34 27 23 35 51 51 42 42 47 51 55 60 64 66 68 74 78 73 64 61 59 58 58 59 58 55 52 50 48 43 37 29 19 10 7 6 6 6 7 7 7 6 6 6 5 6 6 7 7 7 7 8 7 7 6 6 6 5 5 5 5 5 5 5 5
49 46 44 42 41 41 42 48 54 55 52 50 50 50 51 51 50 49 48 46 42 37 29 23 34 52 54 44 42 47 50 55 61 65 66 65 71 81 79 69 63 61 59 59 60 60 58 55 53 52 49 43 36 26 16 9 6 6 7 6 7 8 7 7 6 6 6 6 6 7 7 7 8 8 8 8 7 6 6 5 5 5 5 5 5 5
49 46 44 42 40 39 38 41 46 49 51 49 48 49 51 51 51 51 51 49 44 40 32 23 32 52 57 47 44 47 50 55 62 67 69 66 68 80 83 74 66 63 60 59 60 61 61 59 57 56 54 50 44 34 23 14 8 6 7 6 7 7 8 8 7 6 6 6 6 6 7 7 8 8 8 9 8 7 7 7 6 6 5 5 5 5
49 46 44 42 42 39 37 38 41 46 51 51 48 50 51 50 52 52 52 51 47 42 34 23 30 53 60 50 46 49 50 55 62 68 71 70 69 78 84 77 69 64 60 59 60 60 61 61 59 58 57 55 52 44 32 20 11 7 6 6 6 7 7 8 8 7 6 6 6 6 6 7 7 7 8 9 9 9 8 8 7 7 7 6 6 5
48 46 43 42 43 41 39 40 40 44 51 52 50 50 49 50 52 52 53 52 48 43 36 23 30 55 63 52 49 53 53 56 63 68 73 74 73 79 85 80 71 66 63 61 60 60 61 62 60 60 58 57 57 54 44 29 16 9 7 7 7 7 6 7 8 8 7 7 6 6 6 6 7 7 7 7 8 9 10 9 8 8 8 7 6 6
47 46 43 41 41 40 40 41 39 41 48 51 51 50 48 49 51 51 53 53 48 44 36 23 32 57 63 51 51 56 56 60 66 71 76 79 79 82 85 81 74 68 65 63 62 62 63 63 62 61 60 58 58 58 54 42 25 12 8 7 7 7 7 6 7 8 8 7 7 6 6 6 7 7 7 7 7 8 9 10 10 10 10 9 8 7
44 43 42 40 39 38 39 40 39 40 44 48 51 50 48 48 49 49 52 52 49 45 35 23 36 60 61 51 52 57 60 65 71 74 80 85 85 86 87 82 76 72 68 65 64 64 65 65 65 63 63 62 60 60 61 55 39 19 9 7 7 7 7 7 7 8 8 8 7 7 6 6 7 7 7 8 8 8 8 9 9 10 11 11 11 10
40 41 41 39 38 37 37 39 40 40 42 46 50 50 49 49 48 49 52 51 48 45 31 24 43 63 59 51 55 60 64 72 75 77 84 89 89 90 89 84 78 74 70 67 66 66 67 68 69 68 66 65 65 64 66 66 55 33 14 7 7 7 7 8 7 7 8 8 8 7 7 6 6 7 6 7 8 8 8 9 10 11 11 11 11 12
38 39 39 39 38 37 35 36 39 40 41 44 48 48 49 49 47 49 51 49 47 42 28 27 50 65 58 55 60 64 68 75 75 78 87 92 93 94 93 88 81 76 72 69 68 67 67 69 70 71 70 69 68 67 68 70 68 52 26 10 6 7 7 8 8 7 7 8 8 8 7 6 6 7 7 7 7 7 7 8 9 11 12 13 12 12
38 38 38 38 38 36 34 35 38 40 41 43 45 47 48 48 47 49 49 48 46 37 26 35 58 65 58 59 64 66 71 75 74 80 90 93 93 96 96 91 84 78 74 71 69 67 68 69 71 72 73 72 71 71 70 70 73 67 45 19 7 7 8 7 8 8 7 8 9 9 8 8 7 6 7 7 7 8 8 7 7 8 10 12 14 14
38 38 38 39 38 35 34 35 37 39 41 42 45 47 47 47 47 48 47 47 43 31 27 46 65 64 59 64 68 69 74 76 78 86 94 94 93 96 97 93 87 81 77 74 72 70 69 70 73 73 73 73 72 72 72 72 74 76 64 36 13 6 8 8 8 8 7 7 8 9 9 9 8 7 7 7 6 7 8 8 8 8 7 9 11 14
Wind_Speed
49 51 53 54 56 60 64 68 73 77 81 85 90 93 93 93 97 99 99 100 100 101 103 106 108 108 106 102 97 92 88 84 81 79 77 74 72 70 68 66 63 60 58 56 56 57 58 59 61 63 64 66 68 70 72 74 76 79 80 82 84 85 88 90 92 95 97 100 102 104 106 108 109 111 112 114 115 117 119 121 122 123 124 125 126 127
51 53 54 55 58 63 67 70 74 77 81 86 90 92 93 93 96 100 102 103 103 104 106 107 108 107 105 101 96 90 84 79 75 72 70 69 69 68 68 67 65 63 60 57 54 53 54 55 57 59 61 63 65 67 69 71 73 76 78 79 81 83 85 87 90 92 94 96 98 100 102 103 105 107 108 110 111 112 114 116 118 120 121 122 123 124
52 54 55 58 61 64 68 71 75 79 82 86 88 91 93 94 95 99 102 105 107 107 108 108 106 104 102 98 94 88 82 77 72 68 65 64 64 64 64 63 63 62 61 59 57 55 53 53 53 54 57 59 61 63 66 68 70 72 74 77 78 80 82 85 87 89 91 92 94 96 98 99 101 102 104 106 107 108 110 111 113 115 117 118 119 121
52 55 57 60 63 66 69 72 76 80 82 84 87 90 94 96 99 100 102 105 107 107 107 107 107 104 100 97 93 88 82 76 70 65 62 61 60 60 60 59 59 59 59 59 58 57 56 54 53 53 53 55 57 59 62 64 66 68 71 73 75 76 79 81 84 86 88 90 92 94 95 96 98 99 101 102 103 105 106 108 108 110 111 113 115 117
54 56 59 61 64 67 70 73 76 79 81 84 87 91 95 98 102 104 106 106 106 106 105 105 106 105 103 99 96 91 84 77 71 66 62 59 58 58 58 57 56 56 56 56 57 57 56 55 55 54 54 54 54 56 58 60 62 64 66 68 70 72 74 77 80 82 85 87 89 91 92 94 95 96 98 99 100 102 103 104 105 106 107 109 111 113
55 58 60 62 65 69 71 74 76 78 81 84 88 92 97 100 103 106 108 108 107 107 107 107 106 106 107 105 101 95 89 83 78 72 67 63 60 58 57 56 56 56 55 55 54 54 54 54 55 55 55 55 55 55 56 57 59 60 62 64 67 69 71 73 75 78 80 83 85 87 89 90 92 93 95 96 98 99 100 101 102 103 104 105 107 109
55 58 61 64 66 69 73 74 76 79 82 85 89 93 97 101 105 107 109 109 108 108 108 108 110 111 110 108 105 100 95 90 84 78 72 67 64 61 59 57 56 56 55 55 54 53 52 52 52 53 54 54 54 55 55 55 56 57 58 60 63 65 67 69 71 73 75 77 80 82 84 86 88 89 90 92 94 95 97 98 100 101 102 103 104 106
56 59 62 65 67 69 72 74 76 80 83 87 90 94 98 102 106 109 109 109 109 108 108 110 113 115 114 112 109 105 102 96 90 84 78 72 68 65 62 59 57 56 55 55 54 54 52 51 50 50 51 51 51 52 53 53 54 54 55 56 57 60 62 64 67 69 71 73 74 77 79 82 83 84 86 88 90 91 93 95 96 98 98 99 100 102
58 60 62 66 69 70 72 75 78 82 85 88 91 95 99 101 105 108 108 109 110 109 110 114 117 118 117 116 114 111 107 102 95 89 84 77 71 67 64 61 59 57 56 55 54 54 53 51 49 48 47 48 49 49 50 51 52 52 52 52 53 54 56 58 61 64 66 68 70 72 74 77 79 80 81 83 85 88 90 92 93 94 94 95 97 98
59 61 63 67 70 72 74 78 81 83 86 89 92 95 98 99 102 106 108 109 111 111 114 118 120 120 121 120 119 116 112 107 101 94 87 81 75 71 67 63 60 58 56 54 54 54 53 51 49 46 45 45 45 46 47 49 50 51 51 51 51 51 51 53 55 58 60 63 65 67 70 72 74 76 77 79 81 83 85 87 89 91 92 93 95 95
59 61 64 67 70 74 77 80 82 85 87 90 91 93 95 97 99 105 110 111 113 116 117 119 120 122 123 123 122 120 117 113 107 99 91 84 79 74 70 66 62 59 56 54 53 52 51 50 49 47 44 43 42 43 44 46 47 48 49 50 50 50 50 50 51 53 55 58 60 63 65 67 69 70 72 74 76 79 81 82 84 87 89 91 93 94
60 62 65 67 69 73 77 80 83 86 88 89 91 91 92 94 98 104 111 116 118 121 121 120 121 123 124 124 123 122 120 116 110 103 95 88 82 77 74 70 66 62 58 55 52 50 49 48 48 47 46 44 42 41 41 42 44 45 46 47 49 49 49 49 49 50 51 53 55 58 61 63 65 66 67 69 71 74 76 78 80 83 85 87 89 90
62 64 65 67 69 73 76 79 81 84 87 89 91 93 95 98 102 107 113 119 122 123 123 121 122 123 124 124 124 124 122 119 115 110 103 96 89 83 79 76 71 67 63 59 55 53 51 50 49 48 48 47 45 43 42 42 42 42 43 43 45 47 48 48 48 48 49 50 51 53 56 59 61 62 63 65 66 68 71 74 76 78 80 82 84 86
62 64 66 68 71 75 78 80 82 85 89 92 95 100 103 106 110 113 117 122 124 124 123 121 121 122 123 125 126 126 124 122 120 116 111 104 98 90 84 79 75 71 67 64 60 57 55 53 51 50 49 48 47 46 44 43 43 43 43 42 42 43 45 46 47 47 47 48 49 50 52 54 57 59 60 62 63 64 66 69 71 73 75 77 80 82
62 65 68 71 74 78 81 84 87 90 93 96 99 103 106 109 114 118 121 124 126 125 122 120 120 122 124 126 127 127 126 125 124 121 116 109 102 95 88 83 79 74 70 67 63 60 57 54 52 51 50 49 48 47 46 44 43 42 42 42 42 42 42 43 45 46 47 47 48 48 50 51 53 55 57 59 60 62 63 65 67 69 71 73 75 77
65 68 71 74 77 80 83 86 90 92 95 97 99 101 104 107 111 115 118 122 125 125 123 120 120 122 123 125 126 127 128 128 126 123 119 112 104 98 92 86 82 78 73 69 65 62 58 55 52 50 49 48 48 47 46 45 43 41 40 39 40 40 41 41 42 44 45 46 47 47 48 49 50 52 53 55 57 58 60 62 64 66 68 70 71 73
66 69 73 76 78 81 83 87 90 93 95 97 99 101 104 107 108 110 112 115 119 124 125 122 121 122 123 124 124 125 127 128 127 123 120 115 108 101 95 90 85 81 76 72 68 64 61 58 55 52 49 48 47 46 46 45 44 42 40 39 38 38 38 39 39 40 42 44 45 46 46 47 48 49 51 52 54 55 56 59 61 63 65 67 68 70
67 70 73 76 79 81 84 87 90 93 95 97 99 102 104 107 109 110 112 113 116 121 124 124 123 123 124 125 124 125 126 128 126 124 120 116 110 104 98 92 87 83 79 75 71 67 63 60 57 54 51 49 47 46 45 45 44 44 42 40 38 36 36 36 36 37 38 40 42 43 44 45 46 47 48 50 51 52 53 55 57 59 62 63 65 67
66 70 73 76 79 82 85 87 89 91 94 97 99 103 106 108 110 112 114 117 119 121 123 124 124 125 126 127 127 128 129 129 127 125 121 117 112 106 100 94 89 85 81 78 74 71 66 62 58 55 53 51 48 46 45 44 44 43 42 41 39 37 36 35 35 34 35 36 39 40 42 43 44 45 46 47 48 50 51 52 53 55 58 60 61 63
65 68 72 76 79 82 84 87 89 90 93 96 99 102 106 108 110 112 115 118 121 122 123 124 125 127 128 129 131 132 131 130 129 127 123 120 116 110 104 97 92 87 84 80 77 73 69 66 62 58 55 52 49 46 45 43 43 42 41 40 39 38 36 34 34 33 33 33 35 37 38 40 42 43 44 45 46 47 47 48 50 52 54 56 57 59
64 68 71 74 78 81 84 86 88 90 93 96 100 102 104 106 108 111 114 117 121 123 125 125 126 128 130 131 134 134 133 131 130 129 126 123 120 116 109 102 96 91 86 82 78 74 71 68 65 61 58 54 51 47 45 42 41 41 40 39 38 37 36 34 33 32 32 31 32 33 35 37 39 40 42 43 44 45 45 45 47 49 51 53 54 55
64 67 70 73 75 79 82 85 87 90 93 97 100 102 104 105 107 108 111 115 119 122 124 126 126 128 130 133 136 136 134 132 130 129 129 126 123 120 115 108 101 94 89 84 80 77 74 71 68 64 61 58 55 51 48 44 41 40 40 39 38 37 36 35 33 32 30 30 29 30 31 33 34 37 38 40 42 43 43 44 44 45 47 49 50 52
64 66 69 72 75 78 80 83 86 89 92 96 99 102 103 105 107 108 110 113 116 118 121 123 125 127 130 133 135 136 136 134 131 130 130 129 126 123 119 113 106 99 93 88 84 81 77 74 71 68 65 62 59 55 51 48 45 42 40 40 39 37 36 34 33 32 31 29 28 28 29 29 31 32 34 36 38 40 41 42 43 43 44 45 46 48
65 66 68 70 73 75 77 81 84 88 91 94 98 101 103 105 107 109 112 113 115 117 119 121 124 126 128 130 132 134 136 136 133 131 130 130 129 126 122 117 111 104 98 94 89 85 81 77 74 72 69 66 62 58 54 51 48 46 43 40 39 38 37 35 32 31 30 29 28 27 27 27 28 29 31 32 34 36 37 39 40 41 42 43 43 44
67 69 70 71 71 72 75 78 83 87 91 95 98 102 104 106 108 109 111 112 114 118 119 120 122 124 125 127 129 132 134 136 135 134 132 131 130 128 124 121 117 111 105 99 93 88 84 81 77 74 72 69 65 62 58 54 51 48 46 43 40 38 37 36 35 32 30 28 27 27 26 26 26 26 27 29 30 31 32 34 36 38 39 41 42 42
70 72 73 74 76 77 79 82 85 89 93 96 99 102 104 106 108 109 110 112 113 116 118 119 119 120 121 123 125 128 131 133 135 135 133 131 130 129 127 124 121 117 110 103 97 92 88 85 81 77 74 70 67 64 61 56 52 50 47 44 41 39 37 35 35 34 32 30 28 26 25 25 24 25 25 26 27 28 29 30 32 34 35 37 38 39
70 73 75 77 79 82 84 85 88 90 93 95 98 101 103 105 107 108 110 111 112 113 116 118 119 120 120 120 122 125 129 131 134 135 134 132 131 131 129 127 124 120 115 107 101 97 92 88 84 81 77 73 69 66 63 59 55 51 48 45 42 39 37 35 33 33 32 32 31 29 27 25 24 23 24 24 25 26 26 27 28 30 32 34 35 37
70 73 76 78 79 81 83 85 87 89 92 94 97 99 102 104 106 108 109 110 111 112 114 117 119 120 121 121 122 125 129 132 133 135 135 134 132 132 131 130 127 122 118 112 106 100 95 91 87 83 80 76 72 68 64 61 57 53 49 46 43 40 38 36 34 33 31 31 30 30 29 28 26 24 23 23 23 24 24 25 26 27 29 31 33 35
69 72 75 78 79 81 82 84 86 88 91 93 96 98 100 103 105 107 108 109 110 112 113 115 117 119 121 122 124 126 130 133 134 136 137 137 135 133 132 131 128 124 119 116 110 104 98 93 88 84 81 78 75 71 67 64 60 55 51 48 44 42 40 38 36 34 32 31 29 28 27 27 26 25 24 22 22 22 23 23 23 24 27 29 31 33
67 70 74 77 79 80 82 83 84 86 89 92 94 96 99 102 104 106 106 107 109 111 113 114 116 118 120 121 123 126 129 133 136 137 137 138 137 135 133 131 129 126 121 118 114 108 102 96 91 87 83 80 77 74 71 67 64 60 55 51 47 44 42 40 38 36 34 33 32 30 28 26 25 24 24 23 22 21 22 22 22 22 23 26 29 31
66 68 71 75 78 79 81 82 83 85 88 91 92 95 98 101 103 105 106 107 108 110 111 113 114 116 117 120 122 124 127 130 134 136 137 137 137 136 134 131 129 127 124 120 117 113 107 100 95 90 86 82 79 76 73 70 67 64 60 56 52 48 45 43 40 38 37 35 34 33 31 29 27 25 23 22 22 21 21 21 22 22 21 22 24 27
65 67 69 73 76 78 80 81 82 84 87 89 91 94 97 100 102 105 106 108 108 109 110 111 113 114 116 118 120 123 125 127 130 133 135 137 138 138 135 132 130 128 127 124 120 116 111 105 99 94 89 85 81 78 75 72 69 67 64 61 57 53 49 46 43 40 38 37 35 35 34 32 30 28 26 24 22 22 21 21 21 22 22 21 21 22
65 66 68 71 74 77 79 80 81 82 84 87 90 93 96 99 101 104 106 108 109 110 110 111 113 114 116 117 119 120 123 126 128 131 134 136 138 138 137 134 132 130 129 127 123 119 115 110 104 97 92 87 83 80 77 74 71 69 66 64 61 57 53 50 47 44 41 39 37 36 35 35 33 31 29 27 25 23 22 22 21 21 22 21 21 20
64 66 68 70 73 75 78 79 80 81 82 85 89 92 95 98 101 104 106 108 109 109 110 110 111 113 115 117 118 120 122 125 128 130 132 135 136 137 137 135 133 131 129 128 125 122 118 114 109 103 96 90 86 82 78 76 73 70 68 66 63 61 57 54 51 48 45 42 40 37 36 35 35 34 32 30 28 26 25 24 23 22 22 21 21 21
64 66 68 70 72 74 76 78 79 80 82 85 88 90 93 96 99 102 104 106 107 108 109 109 110 112 114 116 118 120 122 124 127 130 132 133 134 135 136 136 135 132 130 128 126 124 121 117 113 108 101 95 89 84 80 77 74 72 69 66 64 62 60 57 54 51 49 46 42 40 37 36 35 35 34 33 31 29 27 25 24 23 23 22 22 21
64 66 67 69 72 74 75 77 80 81 83 84 86 89 92 95 97 99 101 104 106 107 107 107 109 111 113 115 117 120 122 124 126 129 130 132 133 134 135 136 135 134 131 128 126 125 123 119 116 112 106 100 93 87 83 79 76 73 70 67 65 63 61 59 56 53 51 48 45 42 39 37 36 34 34 33 33 31 29 27 25 24 23 22 22 22
64 66 67 69 72 74 75 77 79 81 82 83 85 88 91 94 97 99 101 104 106 107 106 106 107 110 112 114 115 118 121 123 125 127 129 131 132 133 135 135 135 135 134 131 128 126 125 122 119 115 110 104 97 91 86 81 78 75 72 69 66 63 61 59 57 54 52 50 47 45 42 39 37 35 34 33 32 32 30 29 27 25 24 23 22 22
64 66 68 70 72 74 76 76 77 79 81 82 85 88 91 93 95 98 101 103 105 106 106 106 106 108 111 113 113 115 118 121 123 125 128 130 131 133 134 135 135 134 134 133 131 128 127 125 122 118 114 109 102 95 89 84 80 77 74 70 67 64 61 59 57 55 53 50 49 47 45 43 41 38 37 35 33 32 31 30 28 27 25 23 22 22
65 66 68 70 71 73 76 78 79 80 82 83 85 87 91 93 94 96 99 102 104 106 107 106 106 107 110 111 111 113 115 118 121 124 127 129 131 132 134 135 135 134 134 133 132 130 128 127 126 123 118 114 108 101 94 88 83 78 75 72 69 66 63 60 58 55 53 51 49 48 47 45 44 42 40 37 35 33 31 29 28 27 26 25 23 22
65 66 68 69 71 73 75 78 80 81 83 85 86 87 90 92 94 96 98 101 104 107 107 106 106 106 108 109 110 112 114 116 119 123 126 129 130 132 133 135 135 134 133 133 133 131 130 128 128 126 123 119 114 108 100 92 86 81 77 74 71 68 66 63 59 56 54 52 50 48 47 45 44 43 41 39 37 35 33 30 28 26 25 25 24 23
65 66 68 69 71 72 74 76 79 81 83 85 86 88 90 92 94 96 99 101 104 107 107 107 105 106 108 109 109 111 114 117 119 122 125 128 130 132 133 134 135 134 133 133 133 132 131 130 129 128 126 122 118 113 106 99 91 84 79 76 73 70 68 65 62 59 56 53 51 50 47 45 44 43 42 40 38 36 35 32 30 28 26 24 23 23
65 66 68 69 70 72 73 74 77 79 81 84 86 88 90 91 93 96 99 101 104 106 107 106 105 105 107 109 109 110 113 116 119 121 124 127 129 130 132 134 135 135 134 133 133 132 132 131 130 129 128 126 122 117 112 105 97 89 83 78 74 72 69 67 65 62 59 56 53 50 49 46 45 43 42 40 39 37 36 34 32 30 28 26 24 23
66 67 68 69 70 72 73 74 75 77 81 83 86 87 89 90 92 95 98 101 103 105 107 106 104 104 106 108 109 109 112 115 118 120 123 126 127 129 131 133 134 134 134 133 133 132 132 131 131 130 130 128 126 122 116 111 104 96 88 81 76 73 70 68 66 64 62 59 56 52 50 47 45 43 42 40 39 38 36 35 34 33 31 29 27 25
67 68 69 70 71 73 74 76 77 78 81 83 85 86 88 89 91 94 97 100 102 104 106 105 103 103 105 108 109 109 111 114 117 119 122 125 126 127 129 131 133 134 134 133 132 132 132 131 131 130 129 129 128 125 121 115 109 102 94 86 79 74 71 68 66 63 62 60 58 56 53 49 47 44 42 40 39 38 37 35 33 32 32 31 30 28
67 69 70 71 72 74 75 77 78 79 80 82 84 85 87 88 91 94 96 99 101 103 105 104 102 102 104 107 108 108 110 113 115 118 121 123 124 126 127 129 131 133 134 134 133 132 132 131 130 130 129 128 128 127 124 120 114 107 100 92 84 77 72 69 66 64 61 59 58 56 55 52 49 47 44 41 39 37 37 36 34 32 31 30 29 29
67 69 70 70 71 72 74 76 77 77 79 80 83 84 86 88 90 93 95 98 100 102 103 103 101 101 103 106 107 108 110 112 115 117 120 122 123 124 126 128 130 132 133 133 133 133 132 132 131 130 130 129 128 127 126 123 118 111 104 97 89 82 76 71 67 64 62 59 57 55 54 52 51 49 47 44 42 39 37 35 34 33 32 31 30 29
66 67 69 69 70 70 72 74 76 76 77 79 81 83 85 88 90 92 94 96 98 100 102 101 100 100 102 105 106 107 109 111 113 116 118 120 122 123 125 127 129 130 132 133 133 133 133 133 133 132 131 130 128 127 127 125 121 115 108 101 94 86 80 74 70 66 63 60 58 55 53 51 50 49 47 46 44 42 40 37 35 33 31 30 30 29
65 66 68 69 70 70 71 72 74 75 77 78 80 82 85 87 89 91 93 95 97 99 101 100 98 99 101 103 104 105 107 110 112 115 117 119 121 122 124 126 127 129 130 132 132 133 132 133 133 133 132 131 130 129 128 127 124 119 112 105 98 90 83 78 73 69 66 63 60 57 54 52 50 48 47 45 44 42 40 38 37 36 34 31 28 28
66 66 67 68 69 70 70 70 72 74 75 77 79 81 84 86 88 90 92 94 96 98 99 98 96 97 100 102 103 104 106 108 111 114 116 118 120 121 122 124 126 128 129 131 131 132 132 132 132 132 132 132 131 130 129 127 126 122 116 109 102 95 87 80 75 71 68 65 62 59 57 54 51 49 47 46 45 43 41 37 35 34 34 34 31 29
66 66 67 68 69 69 70 70 71 73 74 76 78 80 82 85 87 89 91 93 95 97 97 95 95 96 99 101 102 104 105 108 110 113 115 117 119 120 121 123 125 127 129 130 131 131 131 131 131 132 132 132 131 131 129 128 126 124 119 113 106 99 91 84 77 72 68 66 63 61 59 56 54 51 48 46 44 44 44 42 38 34 32 32 33 32
66 66 67 68 69 69 70 70 71 72 73 75 77 79 81 83 85 88 90 92 94 96 95 93 94 95 97 100 102 103 105 107 109 112 114 116 117 118 120 122 124 126 128 129 130 131 131 131 131 131 132 131 131 130 129 128 126 125 122 116 109 102 95 88 81 75 70 66 64 61 59 57 56 53 50 47 45 42 41 42 42 40 36 32 31 31
Wind_Direction
14 13 13 11 9 7 7 8 9 9 9 8 7 6 5 3 2 2 1 360 359 358 357 356 356 355 352 350 347 345 342 338 335 332 329 327 325 322 319 316 313 309 305 301 296 293 289 286 283 280 277 275 272 269 267 266 264 263 262 261 259 258 258 257 256 255 255 255 254 254 254 253 253 252 252 251 251 250 250 250 250 249 249 249 248 248
15 12 11 10 10 9 8 9 10 10 9 9 8 6 5 5 4 3 2 0 360 359 359 358 357 356 354 352 350 347 344 341 337 333 330 327 325 322 320 318 316 313 310 306 301 296 292 288 285 283 280 277 275 272 270 268 266 264 263 262 260 259 258 257 256 256 255 255 254 254 254 254 253 253 252 252 251 250 250 249 249 249 249 249 249 248
14 12 10 11 12 10 9 10 10 10 10 9 8 6 5 4 4 4 3 1 0 0 360 358 357 357 355 354 352 350 348 345 341 336 332 328 326 323 321 319 317 315 313 310 307 303 299 294 290 286 282 280 277 275 273 271 269 267 266 264 262 261 259 258 257 256 256 255 255 255 255 254 254 254 253 253 252 252 251 250 249 248 248 248 248 248
14 12 10 12 12 11 11 11 11 11 9 8 7 7 5 4 4 5 4 3 1 0 360 359 357 357 357 356 355 353 351 348 345 340 336 332 329 327 324 321 319 317 315 313 311 308 305 301 297 292 287 284 280 278 276 274 272 270 269 267 265 264 262 261 259 258 257 256 255 255 254 254 254 254 254 253 253 253 252 252 251 250 249 249 248 248
13 12 11 11 12 12 12 12 12 11 9 8 8 7 6 5 5 5 5 4 2 360 359 359 358 358 359 359 358 356 354 352 349 345 341 337 334 332 329 325 323 321 318 316 313 311 308 305 302 298 294 290 286 282 279 276 274 272 271 269 268 266 265 263 262 260 259 257 256 255 254 253 253 252 252 253 253 252 252 252 252 251 251 250 249 249
13 12 11 11 13 14 13 13 13 12 10 9 9 8 7 7 6 6 5 4 2 0 359 359 359 0 1 1 0 359 358 356 354 350 346 343 340 338 334 331 328 325 323 320 317 314 311 308 305 302 299 295 291 287 283 280 277 274 272 270 269 267 266 264 263 261 260 259 258 257 256 254 253 252 251 251 251 251 251 251 251 251 250 250 249 248
13 13 12 11 13 14 14 13 13 13 12 10 9 9 8 8 7 6 6 5 3 1 360 359 0 3 3 3 2 2 1 0 358 355 352 348 346 343 340 337 334 331 328 325 321 318 315 311 308 304 301 298 295 292 288 285 281 278 275 272 270 268 267 266 265 263 262 261 260 259 258 257 256 254 253 252 251 251 250 250 250 249 249 248 248 247
13 13 12 11 11 13 13 12 13 14 13 12 11 10 9 8 7 7 6 5 4 2 360 0 2 3 4 4 4 4 4 3 1 358 356 353 350 348 345 341 338 336 333 330 326 323 319 316 312 308 304 301 298 295 293 290 286 283 279 276 274 271 269 268 266 265 264 263 262 261 259 258 257 256 255 255 254 253 252 251 250 249 249 248 247 246
13 12 12 11 11 12 12 12 13 14 14 13 12 11 10 9 7 6 6 6 5 3 2 3 4 4 4 5 6 6 6 5 3 1 358 355 353 351 349 346 343 340 337 334 330 326 323 320 317 312 308 304 301 298 295 293 290 287 284 281 278 275 272 270 268 266 265 264 263 262 260 259 258 257 255 254 254 253 253 253 252 252 251 250 249 248
12 12 11 11 11 11 12 12 13 13 13 13 13 11 10 9 7 5 6 7 6 5 5 5 4 4 4 6 7 7 7 6 5 4 1 358 355 354 353 351 348 345 342 339 335 330 327 324 321 317 312 307 303 299 296 294 292 290 288 286 283 280 277 274 271 268 266 265 264 262 261 260 259 257 256 254 253 252 252 252 252 252 252 251 251 250
10 10 10 11 10 10 11 12 11 12 13 12 12 12 11 9 8 6 6 8 8 7 7 6 5 5 5 6 7 8 8 7 6 5 3 1 358 356 355 354 352 350 347 344 340 335 330 326 323 320 316 311 306 301 297 294 292 290 288 287 285 283 280 277 274 271 268 266 265 264 262 261 260 259 257 256 254 253 252 251 250 250 251 251 250 250
7 7 8 8 9 9 10 10 10 10 11 10 10 11 11 10 10 9 8 9 10 10 9 7 7 6 6 6 7 8 8 8 7 6 5 4 1 359 358 357 355 353 351 349 345 340 335 330 326 323 320 316 311 306 301 297 293 290 288 286 285 283 282 279 276 274 271 268 266 264 264 263 262 260 259 257 256 254 253 252 251 250 249 250 250 250
6 5 6 7 8 9 10 10 9 8 8 9 8 8 10 11 11 11 10 10 11 11 9 8 8 7 7 7 7 9 9 8 8 7 6 5 4 2 0 359 358 356 354 353 350 347 342 337 333 329 325 321 318 314 309 304 299 295 291 288 285 283 282 280 278 276 274 271 268 266 264 264 263 262 261 259 257 255 254 253 252 251 250 250 250 250
6 6 7 8 9 9 9 10 10 8 8 8 8 7 8 10 11 11 11 11 11 11 10 9 8 8 8 8 8 9 9 9 9 8 7 6 5 3 2 1 360 358 357 356 354 351 348 343 338 334 330 326 323 319 316 312 308 304 300 295 291 287 284 282 280 278 275 273 270 268 266 264 263 262 261 260 259 257 255 254 253 252 251 250 250 250
6 7 8 9 10 10 10 10 10 9 8 8 8 8 8 9 11 10 10 10 10 11 11 10 9 9 9 9 10 9 9 10 10 10 8 7 6 4 3 2 1 0 359 358 357 355 351 347 343 338 334 330 326 323 320 316 313 309 306 302 298 293 288 284 281 279 277 274 272 269 267 265 264 263 261 260 259 258 257 255 254 252 251 250 249 249
6 7 8 9 10 10 10 10 10 9 8 8 8 8 8 9 11 11 10 10 9 9 10 11 10 10 10 11 11 10 10 11 12 11 10 8 7 6 4 3 2 2 1 0 359 357 354 351 347 342 338 333 329 326 323 320 317 314 310 306 302 298 293 289 284 280 278 276 273 271 268 266 265 263 262 260 259 258 257 256 255 253 252 251 250 249
5 6 7 7 8 8 9 9 10 9 8 7 7 8 8 9 10 12 11 11 10 9 10 11 11 11 11 12 12 11 11 12 12 12 11 9 8 6 6 5 3 3 2 1 1 359 357 355 351 347 343 338 333 330 327 325 322 319 316 311 307 302 298 293 289 284 280 277 275 272 270 268 266 264 262 261 259 257 256 256 255 255 254 252 252 251
5 6 6 5 6 7 8 9 9 9 8 7 7 7 8 8 8 10 11 11 11 11 10 10 11 11 11 12 12 12 13 13 13 12 12 11 9 8 7 6 5 4 3 2 2 1 0 358 354 350 346 343 338 335 332 329 326 324 321 318 313 309 304 299 293 288 284 280 276 274 272 270 267 265 263 261 260 258 257 255 255 254 254 254 253 252
5 5 5 5 5 6 7 8 8 9 8 7 7 7 8 8 7 8 9 10 11 12 12 11 11 11 11 12 12 13 14 13 13 12 12 12 11 10 9 8 7 6 5 4 3 2 2 0 358 355 351 347 344 339 336 333 330 327 325 322 319 315 310 305 299 294 289 284 280 277 274 271 269 267 265 262 260 259 257 256 255 254 253 253 253 253
4 4 4 4 5 5 6 7 7 7 8 7 7 8 7 7 6 7 8 9 10 10 12 12 12 12 12 12 13 14 14 14 13 12 12 12 12 11 10 9 8 7 6 6 4 3 2 2 1 359 355 352 348 344 340 337 334 331 328 326 323 320 316 311 306 301 295 290 285 281 277 274 271 269 267 265 262 260 258 256 255 254 253 252 252 252
3 3 4 5 5 5 6 6 6 6 7 8 7 8 8 7 7 6 7 9 10 9 11 12 13 13 13 13 13 13 14 14 13 12 12 12 12 12 11 10 10 9 8 7 6 5 4 3 3 1 359 356 352 349 345 342 339 336 333 331 328 325 321 317 311 306 301 296 291 285 281 277 274 272 269 267 265 263 261 258 255 254 254 253 252 251
3 3 4 4 4 5 5 5 6 6 6 8 8 7 7 7 7 6 6 8 10 10 10 11 12 13 13 14 14 13 13 14 14 13 12 12 13 13 12 11 10 10 9 8 7 7 6 5 4 3 2 359 356 353 349 347 344 341 338 336 333 329 326 322 318 312 307 302 297 291 286 282 278 275 272 270 268 266 264 262 259 256 255 254 253 252
2 2 3 3 3 5 5 5 5 6 7 8 8 7 7 6 6 6 6 8 10 11 10 11 12 12 13 13 13 13 12 13 13 14 13 13 13 13 13 12 11 10 10 9 9 8 7 6 6 5 4 2 359 356 353 350 349 347 344 341 338 334 331 327 323 319 314 310 305 299 293 288 283 279 276 272 270 268 266 264 262 260 258 255 254 253
1 2 2 3 3 4 4 5 5 6 7 8 8 7 6 6 6 6 7 7 8 10 11 11 11 12 12 12 12 13 12 12 13 13 14 14 13 13 13 13 12 11 10 10 10 9 8 8 7 6 6 4 2 359 356 354 351 350 348 346 343 339 336 332 329 325 321 317 312 307 301 294 288 283 279 276 273 270 268 266 265 262 260 258 256 253
358 360 1 2 2 2 4 5 5 6 7 7 8 8 6 6 6 6 7 6 6 9 11 11 11 11 11 11 11 12 12 12 13 13 13 14 13 13 13 13 13 13 12 11 10 9 9 9 8 8 7 6 4 2 359 357 354 352 351 350 348 344 341 338 335 332 328 323 318 313 309 303 297 290 284 280 276 273 270 268 266 264 262 260 258 256
356 358 359 360 0 1 3 4 5 6 6 6 7 7 6 5 5 6 6 6 6 7 9 10 11 11 11 11 11 11 12 13 13 13 13 13 13 13 13 14 14 14 13 11 10 10 10 9 9 8 8 7 6 4 2 359 357 355 353 352 351 349 346 343 339 336 333 330 326 321 316 311 306 299 292 285 280 277 273 269 266 265 263 261 259 257
355 355 357 358 359 0 1 3 4 5 5 6 6 6 5 5 5 5 5 6 6 6 7 9 10 10 11 11 11 11 12 13 14 14 13 13 14 14 14 14 14 14 14 12 11 11 11 10 9 8 8 7 7 6 4 2 360 357 356 355 354 353 351 348 344 341 337 334 332 328 325 320 315 309 302 295 288 282 277 272 268 265 263 262 260 257
354 354 355 356 358 359 360 1 3 4 4 5 5 5 4 4 4 4 4 5 6 6 7 8 9 10 10 10 11 11 12 13 14 14 14 14 14 14 14 14 14 14 14 14 13 12 11 11 10 9 8 7 7 7 6 5 3 1 359 358 357 357 355 352 349 346 343 339 336 333 329 326 323 317 311 304 297 291 284 278 272 268 265 263 261 259
353 353 354 355 356 357 358 360 1 2 3 3 3 3 3 3 3 3 4 4 5 5 6 7 8 9 9 9 10 11 12 12 13 14 14 14 14 14 14 14 14 14 14 14 14 13 12 11 11 10 8 8 7 7 7 7 6 4 3 1 1 0 360 357 354 351 348 346 343 340 335 331 327 323 318 313 306 300 294 287 280 273 268 265 263 262
352 352 352 353 354 356 357 358 360 1 2 2 2 2 2 3 3 2 3 3 4 5 5 6 7 8 9 9 10 11 12 12 12 13 14 14 14 14 14 14 14 14 14 15 15 14 13 12 11 11 10 9 8 7 7 7 7 6 5 4 4 4 4 2 359 356 353 350 349 347 344 340 335 329 324 319 313 307 301 296 289 282 274 270 267 265
351 351 351 352 353 354 355 357 358 360 1 1 1 1 2 2 2 2 2 3 4 5 5 5 6 7 8 8 9 10 11 11 12 12 13 14 14 14 14 14 14 14 14 14 15 15 14 13 12 11 11 10 9 8 7 7 7 7 6 6 6 6 6 5 3 1 357 354 352 350 348 345 342 338 332 325 319 314 308 302 297 292 285 277 272 269
350 350 350 351 351 352 354 355 357 359 360 360 360 1 1 1 1 1 1 2 3 4 5 5 5 5 6 8 8 9 9 10 11 11 12 13 14 14 13 13 13 14 14 14 15 15 15 15 13 12 11 10 10 9 8 8 8 7 7 7 7 7 7 7 6 5 2 359 356 353 351 349 346 343 339 334 328 321 315 309 304 299 294 288 280 274
348 349 350 350 350 351 352 354 355 357 358 358 359 360 360 360 360 360 0 1 2 3 4 5 5 4 5 6 7 8 8 9 9 10 11 12 13 13 13 13 13 13 14 14 14 15 15 16 15 13 12 11 10 10 9 9 8 8 7 7 7 7 7 7 7 7 6 4 1 358 355 352 350 347 345 341 337 331 324 318 312 306 301 296 291 284
347 347 348 349 349 350 351 353 354 355 356 357 358 359 359 359 359 359 360 0 1 2 3 4 4 4 4 5 6 7 7 7 8 9 10 11 11 12 12 13 13 13 14 14 14 14 15 15 15 14 13 11 11 11 10 9 9 8 8 8 8 7 7 7 7 7 7 6 5 2 359 356 353 351 349 347 344 340 334 328 322 316 310 304 299 294
345 346 347 347 348 349 350 351 352 353 355 357 357 357 358 359 359 359 359 359 360 1 2 3 3 4 4 4 5 5 6 7 7 8 9 9 10 11 12 12 13 13 13 14 14 14 14 15 15 15 14 12 11 11 11 10 10 9 9 8 8 8 7 7 7 6 6 6 5 4 2 359 356 353 351 349 347 344 340 336 330 324 318 312 307 301
343 344 345 346 347 348 349 349 350 352 354 355 355 356 357 358 358 358 358 358 359 360 1 2 3 3 4 4 4 5 5 6 6 7 7 8 9 10 11 12 12 12 13 13 14 14 14 14 15 15 15 14 12 11 11 11 10 10 9 9 8 8 8 8 7 6 6 5 5 5 4 2 359 356 353 350 348 345 343 339 335 330 324 317 311 306
341 342 344 345 346 347 348 349 350 351 352 353 354 355 356 357 357 357 357 358 358 359 360 1 2 3 3 4 5 4 4 5 6 6 7 7 8 9 10 11 12 12 12 13 13 14 14 14 14 15 15 15 13 12 11 11 11 10 10 9 9 9 9 8 8 7 6 5 4 4 4 3 1 359 356 353 350 347 344 341 337 334 329 323 316 309
340 341 342 344 344 345 346 347 348 349 350 352 353 354 355 356 356 356 356 357 357 357 358 0 2 2 3 4 5 5 5 5 5 6 6 7 8 8 9 10 11 12 12 12 13 13 14 14 14 14 14 15 15 13 12 11 11 10 10 9 9 9 8 8 9 8 7 6 5 4 3 3 2 1 359 356 353 350 346 342 339 335 331 327 321 315
338 339 341 342 343 344 344 345 347 348 349 351 352 353 353 354 355 356 356 356 356 356 358 359 1 2 2 3 4 5 5 5 5 6 6 7 7 8 8 9 10 11 12 12 12 13 13 14 14 14 14 14 14 14 13 11 11 10 10 9 9 8 8 8 8 8 8 7 6 5 4 3 2 1 359 358 356 353 349 345 341 336 332 328 324 319
336 338 339 340 341 342 343 344 345 346 348 349 350 351 352 352 354 355 355 355 355 356 357 358 360 1 1 2 3 4 4 5 5 6 6 6 6 7 7 8 9 10 11 12 12 12 13 14 14 14 14 13 13 14 13 12 11 10 10 10 9 8 7 7 7 8 8 8 7 6 5 3 2 1 359 358 356 354 351 348 344 340 335 330 325 321
334 336 338 339 340 341 342 343 344 345 346 347 348 349 351 352 352 353 354 354 354 355 355 357 358 360 0 1 1 2 3 4 4 5 5 5 5 5 6 7 8 9 10 11 12 12 12 13 14 14 14 13 13 13 13 13 12 11 10 10 9 9 7 6 6 6 7 8 8 8 6 4 3 2 360 358 356 354 352 350 347 344 340 334 328 322
333 334 335 337 338 339 340 342 342 343 344 345 347 348 350 351 351 352 353 353 353 354 354 356 357 358 359 359 0 1 2 2 3 3 3 3 4 4 5 6 7 8 9 10 11 11 12 12 13 13 13 13 13 12 12 12 12 11 10 10 10 9 8 7 5 5 5 6 7 8 7 6 4 2 1 359 357 355 353 350 348 345 342 339 334 328
331 332 333 335 337 338 339 340 341 341 343 344 346 348 349 350 350 351 352 352 352 352 353 355 356 357 358 358 359 359 360 0 1 1 1 2 2 3 4 5 6 7 8 8 9 10 11 12 12 13 13 13 13 12 12 12 11 11 10 10 10 9 8 8 6 5 4 4 4 5 6 7 5 3 2 360 358 356 353 351 349 347 344 341 338 335
329 330 332 334 335 336 337 338 340 341 342 343 345 346 348 348 349 350 350 351 351 351 352 353 355 356 356 357 357 358 358 359 359 359 360 0 1 2 3 3 4 5 6 7 8 9 10 11 12 12 13 13 13 12 12 11 11 10 9 9 9 9 9 8 7 6 4 3 2 3 3 4 5 5 3 1 359 357 354 352 350 348 345 342 339 337
327 329 331 333 334 335 336 337 338 339 340 341 343 345 346 347 348 348 349 350 350 350 351 352 354 355 355 356 356 357 357 358 358 358 359 360 0 1 2 2 3 4 5 6 7 8 9 10 11 12 12 12 13 12 12 11 10 10 9 8 7 7 8 8 7 6 5 4 3 2 1 1 2 3 3 3 1 359 357 354 351 348 346 343 340 337
326 327 329 331 332 334 335 335 336 337 338 340 341 343 344 345 346 347 347 348 349 349 350 351 352 354 355 355 356 356 357 357 357 357 358 359 360 0 1 1 2 3 4 5 6 6 8 9 10 11 11 11 12 12 12 11 10 10 9 8 7 6 6 7 7 6 6 5 4 3 2 1 360 0 1 2 1 360 359 357 354 350 347 345 343 340
324 325 327 328 330 332 333 334 334 336 337 338 339 341 342 343 344 345 346 347 348 348 349 350 352 353 354 355 355 356 356 356 357 357 358 358 359 359 360 0 1 2 3 4 4 5 6 7 8 9 10 10 11 11 12 11 10 9 9 8 7 6 5 5 6 6 5 5 4 3 3 2 0 359 359 360 360 359 358 356 355 353 351 348 345 342
321 323 324 326 328 330 332 333 333 334 336 337 338 339 341 342 343 344 345 346 347 347 348 349 351 352 353 354 355 356 356 356 356 356 357 357 358 358 358 359 360 0 1 2 3 4 5 6 7 8 9 9 10 10 11 11 10 9 8 8 7 6 5 5 5 5 4 4 3 3 3 2 1 0 359 358 358 359 359 357 355 353 351 350 348 344
320 321 323 324 326 328 330 331 332 333 334 336 337 338 340 341 342 343 345 345 346 346 347 349 350 352 352 353 354 355 355 355 355 356 356 356 357 357 357 358 358 359 360 1 2 3 4 5 6 7 7 8 9 9 10 10 10 9 8 7 7 6 5 5 4 4 4 3 2 2 2 2 1 1 360 358 356 356 356 358 358 355 351 349 348 347
318 320 321 323 324 326 328 330 331 332 334 335 336 338 339 340 342 343 344 344 345 345 346 348 350 351 351 352 353 354 354 354 354 354 355 355 356 356 356 356 357 358 359 359 1 2 3 4 5 6 6 7 8 8 9 9 9 9 8 7 6 6 5 4 4 4 4 3 2 1 0 0 0 0 0 360 358 356 354 353 354 356 356 352 348 346
316 318 320 322 323 325 327 329 330 332 333 334 336 337 339 340 341 343 343 344 344 345 346 347 349 350 350 351 352 353 353 353 353 354 354 354 355 355 355 355 356 357 357 358 359 0 1 2 3 4 5 6 6 7 8 8 8 8 7 6 6 5 5 4 3 3 3 3 3 2 360 359 359 359 359 359 358 358 356 353 351 351 353 354 352 348